linux/include/trace/events/
<<
>>
Prefs
9p.h 5218 2021-08-29 15:04:50 -0700
afs.h 38158 2020-06-10 18:22:53
alarmtimer.h 2087 2021-08-29 15:04:50 -0700
asoc.h 5276 2020-06-10 18:22:53
bcache.h 11828 2020-06-10 18:22:53
block.h 17589 2020-06-10 18:22:53
bpf_test_run.h 1048 2021-08-29 15:04:50 -0700
bridge.h 3509 2021-08-29 15:04:50 -0700
btrfs.h 57723 2020-06-10 18:22:53
cachefiles.h 8143 2021-08-29 15:04:50 -0700
cgroup.h 4381 2021-08-29 15:04:50 -0700
clk.h 4179 2020-06-10 18:22:53
cma.h 1339 2020-06-10 18:22:53
compaction.h 7931 2020-06-10 18:22:53
context_tracking.h 1177 2021-08-29 15:04:50 -0700
cpuhp.h 1871 2021-08-29 15:04:50 -0700
devfreq.h 1129 2020-06-10 18:22:53
devlink.h 5746 2020-06-10 18:22:53
dma_fence.h 1704 2020-06-10 18:22:53
erofs.h 6393 2020-06-10 18:22:53
ext4.h 69078 2020-06-10 18:22:53
f2fs.h 41750 2020-06-10 18:22:53
fib.h 2608 2021-08-29 15:04:50 -0700
fib6.h 2446 2021-08-29 15:04:50 -0700
filelock.h 7529 2020-06-10 18:22:53
filemap.h 2803 2020-06-10 18:22:53
fs_dax.h 8456 2021-08-29 15:04:50 -0700
fscache.h 15001 2021-08-29 15:04:50 -0700
fsi.h 2880 2021-08-29 15:04:50 -0700
fsi_master_aspeed.h 2109 2021-08-29 15:04:50 -0700
fsi_master_ast_cf.h 3755 2021-08-29 15:04:50 -0700
fsi_master_gpio.h 4017 2021-08-29 15:04:50 -0700
gpio.h 1099 2021-08-29 15:04:50 -0700
host1x.h 5670 2021-08-29 15:04:50 -0700
hswadsp.h 8568 2020-06-10 18:22:53
huge_memory.h 4488 2020-06-10 18:22:53
hwmon.h 1489 2021-08-29 15:04:50 -0700
i2c.h 4047 2021-08-29 15:04:50 -0700
ib_mad.h 12960 2021-08-29 15:04:50 -0700
ib_umad.h 4095 2021-08-29 15:04:50 -0700
initcall.h 1310 2021-08-29 15:04:50 -0700
intel-sst.h 2571 2021-08-29 15:04:50 -0700
intel_iommu.h 3587 2020-06-10 18:22:53
intel_ish.h 556 2021-08-29 15:04:50 -0700
io_uring.h 9186 2020-06-10 18:22:53
iocost.h 5044 2020-06-10 18:22:53
iommu.h 3105 2021-08-29 15:04:50 -0700
ipi.h 1924 2021-08-29 15:04:50 -0700
irq.h 3889 2021-08-29 15:04:50 -0700
irq_matrix.h 5055 2021-08-29 15:04:50 -0700
iscsi.h 2336 2021-08-29 15:04:50 -0700
jbd2.h 10487 2020-06-10 18:22:53
kmem.h 8521 2020-06-10 18:22:53
kvm.h 9245 2020-06-10 18:22:53
kyber.h 2507 2020-06-10 18:22:53
libata.h 11812 2021-08-29 15:04:50 -0700
lock.h 1737 2021-08-29 15:04:50 -0700
mce.h 1897 2021-08-29 15:04:50 -0700
mdio.h 1048 2021-08-29 15:04:50 -0700
migrate.h 1916 2020-06-10 18:22:53
mlxsw.h 2682 2021-08-29 15:04:50 -0700
mmc.h 7412 2021-08-29 15:04:50 -0700
mmflags.h 8509 2020-06-10 18:22:53
module.h 2851 2021-08-29 15:04:50 -0700
napi.h 1011 2021-08-29 15:04:50 -0700
nbd.h 2185 2021-08-29 15:04:50 -0700
neigh.h 7167 2021-08-29 15:04:50 -0700
net.h 8155 2020-06-10 18:22:53
net_probe_common.h 1235 2021-08-29 15:04:50 -0700
nilfs2.h 5326 2021-08-29 15:04:50 -0700
nmi.h 780 2021-08-29 15:04:50 -0700
objagg.h 4691 2021-08-29 15:04:50 -0700
oom.h 3973 2021-08-29 15:04:50 -0700
page_isolation.h 943 2021-08-29 15:04:50 -0700
page_pool.h 2650 2020-06-10 18:22:53
page_ref.h 3060 2021-08-29 15:04:50 -0700
pagemap.h 2192 2020-06-10 18:22:53
percpu.h 2669 2021-08-29 15:04:50 -0700
power.h 11917 2020-06-10 18:22:53
power_cpu_migrate.h 1625 2021-08-29 15:04:50 -0700
preemptirq.h 2163 2021-08-29 15:04:50 -0700
printk.h 786 2021-08-29 15:04:50 -0700
pwc.h 1714 2021-08-29 15:04:50 -0700
pwm.h 1238 2021-08-29 15:04:50 -0700
qdisc.h 1397 2020-06-10 18:22:53
random.h 7250 2020-06-10 18:22:53
rcu.h 22572 2020-06-10 18:22:53
rdma.h 3315 2020-06-10 18:22:53
rdma_core.h 7193 2021-08-29 15:04:50 -0700
regulator.h 2456 2020-06-10 18:22:53
rpcgss.h 8845 2020-06-10 18:22:53
rpcrdma.h 40482 2020-06-10 18:22:53
rpm.h 2500 2021-08-29 15:04:50 -0700
rseq.h 1288 2021-08-29 15:04:50 -0700
rtc.h 3354 2021-08-29 15:04:50 -0700
rxrpc.h 44178 2020-06-10 18:22:53
sched.h 15448 2020-06-10 18:22:53
scmi.h 2272 2020-06-10 18:22:53
scsi.h 12614 2020-06-10 18:22:53
sctp.h 2432 2021-08-29 15:04:50 -0700
signal.h 3486 2021-08-29 15:04:50 -0700
siox.h 2041 2021-08-29 15:04:50 -0700
skb.h 1412 2021-08-29 15:04:50 -0700
smbus.h 7508 2021-08-29 15:04:50 -0700
sock.h 5194 2020-06-10 18:22:53
spi.h 4372 2020-06-10 18:22:53
spmi.h 3336 2021-08-29 15:04:50 -0700
sunrpc.h 33691 2020-06-10 18:22:53
sunvnet.h 3129 2021-08-29 15:04:50 -0700
swiotlb.h 1253 2021-08-29 15:04:50 -0700
syscalls.h 1506 2021-08-29 15:04:50 -0700
target.h 7697 2020-06-10 18:22:53
task.h 1526 2021-08-29 15:04:50 -0700
tcp.h 7216 2020-06-10 18:22:53
tegra_apb_dma.h 1645 2021-08-29 15:04:50 -0700
thermal.h 5559 2020-06-10 18:22:53
thermal_power_allocator.h 3297 2021-08-29 15:04:50 -0700
thp.h 2137 2021-08-29 15:04:50 -0700
timer.h 10360 2020-06-10 18:22:53
tlb.h 1439 2021-08-29 15:04:50 -0700
udp.h 632 2021-08-29 15:04:50 -0700
ufs.h 7256 2020-06-10 18:22:53
v4l2.h 9018 2021-08-29 15:04:50 -0700
vb2.h 1769 2021-08-29 15:04:50 -0700
vmscan.h 12585 2020-06-10 18:22:53
vsock_virtio_transport_common.h 3572 2020-06-10 18:22:53
wbt.h 3919 2020-06-10 18:22:53
workqueue.h 2977 2020-06-10 18:22:53
writeback.h 23962 2020-06-10 18:22:53
xdp.h 9255 2020-06-10 18:22:53
xen.h 15010 2020-06-10 18:22:53